Content
SEND FEEDBACK

Daily
Averages
Monthly
Summary
Canada

QUEBEC CITY, QUEBEC


Home > North America > Canada > Quebec
Elevation: 239 feet     Latitude: 46 48N     Longitude: 071 23W

WEATHER
 
SELECT A DAY
Number of Records: 191,801;   Date Range: 6/30/96 - 7/10/14
 
SHARE

PRINT THIS DATA

[ ← Previous Day ]
WEATHER ALMANAC - JANUARY 25, 2013
[ Next Day → ]
[ °C ]   °F
Weather ElementAverageHighLow
Temperature-0.7 °F2 °F (1:00 pm)-3 °F (1:00 am)
Dewpoint-11.7 °F-7 °F (7:00 pm)-14.8 °F (1:00 am)
Humidity56 %61 % (10:00 pm)46 % (10:00 am)
Barometer30.21 in30.27 in (10:00 am)30.13 in (11:00 pm)
Wind Speed16.1 mph23 mph (4:00 am)
Wind Gust28.8 mph (1:00 pm)
Weather ElementAverage
Visibility18.9 mi
Wind DirectionWSW (244.5 °)

Weather ElementTotal
Precipitation---
Heating Degree Days65.5 (Base 65)
Averaged from 31 records on January 25, 2013
WEATHER CONDITIONS BREAKOUT
WIND DIRECTION BREAKOUT
WEATHER BY HOUR - JANUARY 25, 2013
[ °C ]   °F
Local TimeTemperatureDewpointHumidityBarometerVisibilityWind DirectionWind SpeedGust SpeedPrecipitationEventsConditions
1:00 AM-3.0 °F-11.0 °F54 %30.21 inWest (260°)16.1 mph
1:00 AM-2.2 °F-14.8 °F55 %30.21 in15.0 miWSW (250°)19.6 mph25.3 mphSnowLow Drifting Snow
2:00 AM-2.2 °F-13.0 °F60 %30.23 in15.0 miWSW (250°)18.4 mph25.3 mphSnowLow Drifting Snow
3:00 AM-2.2 °F-13.0 °F60 %30.24 in15.0 miWest (260°)19.6 mphSnowLow Drifting Snow
4:00 AM-2.0 °F-9.0 °F58 %30.22 inWest (260°)19.6 mph
4:00 AM-2.2 °F-13.0 °F60 %30.23 in15.0 miWest (260°)23.0 mphSnowLow Drifting Snow
5:00 AM-2.2 °F-13.0 °F60 %30.22 in15.0 miWSW (250°)21.9 mph27.6 mphSnowLow Drifting Snow
6:00 AM-2.2 °F-13.0 °F60 %30.23 in15.0 miWSW (250°)19.6 mphMostly Cloudy
7:00 AM-2.0 °F-10.0 °F53 %30.22 inWSW (240°)11.5 mph
7:00 AM-2.2 °F-14.8 °F55 %30.23 in15.0 miWSW (240°)17.3 mphSnowLow Drifting Snow
8:00 AM-2.2 °F-14.8 °F55 %30.25 in20.0 miWSW (240°)19.6 mphSnowLow Drifting Snow
9:00 AM-2.2 °F-14.8 °F55 %30.25 in20.0 miWSW (240°)20.7 mphSnowLow Drifting Snow
10:00 AM-1.0 °F-11.0 °F46 %30.27 inWSW (240°)11.5 mph
10:00 AM-0.4 °F-14.8 °F51 %30.27 in25.0 miWSW (240°)18.4 mphScattered Clouds
11:00 AM-0.4 °F-13.0 °F55 %30.26 in25.0 miWSW (240°)18.4 mphSnowLow Drifting Snow
12:00 PM1.4 °F-13.0 °F51 %30.24 in25.0 miSW (230°)19.6 mphPartly Cloudy
1:00 PM2.0 °F-8.0 °F47 %30.21 inSW (230°)9.2 mph
1:00 PM1.4 °F-11.2 °F56 %30.22 in25.0 miSW (220°)19.6 mph28.8 mphSnowLow Drifting Snow
2:00 PM1.4 °F-11.2 °F56 %30.19 in25.0 miSW (230°)20.7 mph28.8 mphSnowLow Drifting Snow
3:00 PM1.4 °F-11.2 °F56 %30.18 in25.0 miWSW (240°)21.9 mph28.8 mphSnowLow Drifting Snow
4:00 PM1.0 °F-9.0 °F48 %30.18 inWSW (250°)12.7 mph
4:00 PM1.4 °F-11.2 °F56 %30.18 in25.0 miWSW (250°)20.7 mphSnowLow Drifting Snow
5:00 PM-0.4 °F-13.0 °F55 %30.18 in25.0 miWSW (250°)17.3 mphSnowLow Drifting Snow
6:00 PM-0.4 °F-13.0 °F55 %30.18 in15.0 miWSW (250°)13.8 mphMostly Cloudy
7:00 PM0.0 °F-7.0 °F59 %30.17 inWest (260°)8.1 mph
7:00 PM-0.4 °F-11.2 °F60 %30.18 in15.0 miWSW (240°)12.7 mphMostly Cloudy
8:00 PM-0.4 °F-11.2 °F60 %30.17 in15.0 miWSW (240°)11.5 mphOvercast
9:00 PM-0.4 °F-11.2 °F60 %30.16 in15.0 miWSW (250°)10.4 mphOvercast
10:00 PM0.0 °F-7.0 °F61 %30.14 inWSW (240°)5.8 mph
10:00 PM-0.4 °F-11.2 °F60 %30.14 in15.0 miSW (230°)10.4 mphMostly Cloudy
11:00 PM-0.4 °F-11.2 °F60 %30.13 in15.0 miWSW (250°)8.1 mphMostly Cloudy
Hourly data recorded from CYQB, located miles away from Quebec City, Quebec







STORIES FROM OUR PARTNERS